Morrisville, VT

7:14 AM EST on February 09, 2016 (GMT -0500)
Morrisville Stowe State

Weather History for KMVL - April, 2013

Change the Weather History Date:

Sunday, April 14, 2013

  Actual Average Record
Temperature  
Mean Temperature 37 °F 41 °F  
Max Temperature 44 °F 53 °F 80 °F (2014)
Min Temperature 29 °F 30 °F 19 °F (2003)
Degree Days  
Heating Degree Days 28 24  
Month to date heating degree days 399 376  
Since 1 July heating degree days 6969 7463  
Cooling Degree Days 0 0  
Month to date cooling degree days 0 0  
Year to date cooling degree days 0 0  
Moisture  
Dew Point 33 °F    
Average Humidity 79    
Maximum Humidity 100    
Minimum Humidity 57    
Precipitation  
Precipitation 0.11 in 0.09 in 0.29 in (1951)
Month to date precipitation 1.63 1.17  
Year to date precipitation 6.11 7.12  
Sea Level Pressure  
Sea Level Pressure 30.02 in    
Wind  
Wind Speed 3 mph (NNW)    
Max Wind Speed 13 mph    
Max Gust Speed 17 mph    
Visibility 8 miles    
Events Rain , Snow    
T = Trace of Precipitation, MM = Missing Value Source: NWS Daily Summary

Daily Weather History Graph

Daily Weather History Graph

Search for Another Location

Airport or City:

Trip Planner

Search our weather history database for the weather conditions in past years. The results will help you decide how hot, cold, wet, or windy it might be!

Date:

Astronomy

Apr. 14, 2013 Rise Set
Actual Time 6:07 AM EDT 7:34 PM EDT
Civil Twilight 5:37 AM EDT 8:04 PM EDT
Nautical Twilight 5:00 AM EDT 8:41 PM EDT
Astronomical Twilight 4:21 AM EDT 9:20 PM EDT
Moon 8:35 AM EDT (4/14) 11:52 PM EDT (4/14)
Length of Visible Light 14h 27m
Length of Day
13h 26m
Waxing Crescent, 17% of the Moon is Illuminated
Apr 14
Waxing Crescent
Apr 18
First Quarter
Apr 25
Full
May 2
Last Quarter
May 9
New

Hourly Weather History & Observations

Time (EDT) Temp. Windchill Dew Point Humidity Pressure Visibility Wind Dir Wind Speed Gust Speed Precip Events Conditions
12:54 AM 34.0 °F - 32.0 °F 92% 29.92 in 7.0 mi Calm Calm - N/A   Overcast
1:54 AM 34.0 °F - 32.0 °F 92% 29.91 in 9.0 mi Calm Calm - N/A   Overcast
2:54 AM 33.1 °F 30.0 °F 32.0 °F 96% 29.90 in 10.0 mi South 3.5 mph - N/A   Overcast
3:54 AM 33.1 °F 30.0 °F 30.9 °F 92% 29.90 in 9.0 mi South 3.5 mph - N/A   Overcast
4:54 AM 33.1 °F 30.0 °F 30.9 °F 92% 29.91 in 6.0 mi South 3.5 mph - 0.00 in Rain Light Rain
5:54 AM 33.1 °F - 32.0 °F 96% 29.92 in 6.0 mi Calm Calm - 0.00 in Rain Light Rain
6:42 AM 33.8 °F - 33.8 °F 100% 29.91 in 4.0 mi Calm Calm - 0.02 in Rain Light Rain
6:54 AM 34.0 °F - 33.1 °F 96% 29.94 in 3.0 mi Calm Calm - 0.02 in Rain Light Rain
7:31 AM 33.8 °F - 33.8 °F 100% 29.93 in 6.0 mi Calm Calm - 0.02 in Rain Light Rain
7:45 AM 35.6 °F 31.7 °F 33.8 °F 93% 29.94 in 7.0 mi South 4.6 mph - 0.02 in Rain Light Rain
7:54 AM 35.1 °F 31.0 °F 34.0 °F 96% 29.96 in 10.0 mi South 4.6 mph - 0.02 in   Overcast
8:54 AM 37.0 °F - 36.0 °F 96% 29.98 in 10.0 mi Calm Calm - 0.00 in   Overcast
9:13 AM 37.4 °F 34.9 °F 35.6 °F 93% 29.96 in 10.0 mi North 3.5 mph - 0.00 in Rain Light Rain
9:49 AM 37.4 °F - 35.6 °F 93% 29.97 in 7.0 mi Calm Calm - 0.00 in Rain Light Rain
9:54 AM 39.9 °F 36.7 °F 36.0 °F 86% 29.99 in 10.0 mi NNW 4.6 mph - 0.00 in Rain Light Rain
10:09 AM 39.2 °F 35.0 °F 35.6 °F 87% 29.97 in 10.0 mi North 5.8 mph - 0.00 in   Overcast
10:27 AM 39.2 °F 35.0 °F 35.6 °F 87% 29.97 in 10.0 mi Variable 5.8 mph - 0.00 in   Overcast
10:37 AM 41.0 °F 38.0 °F 35.6 °F 81% 29.98 in 10.0 mi NNE 4.6 mph - 0.00 in   Overcast
10:54 AM 39.9 °F 36.7 °F 34.0 °F 79% 30.01 in 10.0 mi North 4.6 mph - 0.00 in Rain Light Rain
11:04 AM 39.2 °F 35.0 °F 33.8 °F 81% 29.99 in 7.0 mi NW 5.8 mph - 0.01 in Rain Light Rain
11:23 AM 39.2 °F - 37.4 °F 93% 29.98 in 10.0 mi Calm Calm - 0.01 in   Mostly Cloudy
11:45 AM 42.8 °F - 33.8 °F 70% 29.99 in 10.0 mi Calm Calm - 0.01 in   Mostly Cloudy
11:54 AM 43.0 °F 41.3 °F 35.1 °F 74% 30.01 in 10.0 mi North 3.5 mph - 0.01 in   Overcast
12:06 PM 37.4 °F 32.8 °F 30.2 °F 75% 30.00 in 1.8 mi Variable 5.8 mph 17.3 mph 0.03 in Rain Heavy Rain
12:10 PM 35.6 °F - 30.2 °F 81% 30.00 in 1.0 mi Calm Calm - 0.05 in Rain Heavy Rain
12:14 PM 35.6 °F - 30.2 °F 81% 30.00 in 1.0 mi Calm Calm - 0.05 in Snow Light Snow
12:18 PM 35.6 °F - 32.0 °F 87% 30.00 in 2.5 mi Calm Calm - 0.05 in Snow Light Snow
12:25 PM 37.4 °F - 33.8 °F 87% 30.01 in 10.0 mi Calm Calm - 0.05 in   Overcast
12:33 PM 37.4 °F - 35.6 °F 93% 30.01 in 10.0 mi Calm Calm - 0.05 in   Overcast
12:54 PM 39.0 °F 32.8 °F 34.0 °F 82% 30.04 in 9.0 mi North 9.2 mph - 0.05 in Rain Light Rain
1:14 PM 39.2 °F 35.0 °F 35.6 °F 87% 30.01 in 10.0 mi North 5.8 mph - 0.00 in   Overcast
1:54 PM 43.0 °F - 35.1 °F 74% 30.04 in 10.0 mi Calm Calm - 0.00 in   Overcast
2:54 PM 39.9 °F 33.9 °F 32.0 °F 73% 30.07 in 6.0 mi NNW 9.2 mph 17.3 mph 0.01 in Rain Light Rain
4:54 PM 42.1 °F 37.1 °F 30.9 °F 65% 30.11 in 10.0 mi NNW 8.1 mph - N/A   Overcast
5:54 PM 42.1 °F 37.7 °F 28.9 °F 60% 30.14 in 10.0 mi Variable 6.9 mph - 0.00 in   Overcast
6:54 PM 41.0 °F - 30.9 °F 67% 30.16 in 10.0 mi Calm Calm - N/A   Overcast
7:54 PM 37.9 °F - 30.0 °F 73% 30.18 in 10.0 mi Calm Calm - N/A   Mostly Cloudy
8:54 PM 36.0 °F - 30.9 °F 82% 30.22 in 9.0 mi Calm Calm - N/A   Overcast
9:54 PM 33.1 °F - 28.9 °F 85% 30.23 in 10.0 mi Calm Calm - N/A   Clear
10:54 PM 30.0 °F - 27.0 °F 88% 30.24 in 10.0 mi Calm Calm - N/A   Clear
11:54 PM 28.9 °F 25.2 °F 27.0 °F 92% 30.25 in 10.0 mi SSW 3.5 mph - N/A   Clear